Location: Glencliff
(36.1226°N, 86.7183°W)
Time: 23:31:42
(UTC+00:00)

Aureole 2 Rocket - Pass Details

Date: 25 August 2019
Orbit: 313 x 475 km, 73.9° (Epoch: 18 October)

Event Time Altitude Azimuth Distance (km) Brightness Sun altitude
Rises 01:25:47 0° 346° (NNW) 2,050 6.3 -12.3°
Reaches altitude 10° 01:27:44 10° 351° (N) 1,217 5.0 -12.7°
Maximum altitude 01:30:19 55° 71° (ENE) 387 1.8 -13.1°
Enters shadow 01:31:24 29° 138° (SE) 620 2.6 -13.3°
